User: anonymous   Login
Location: CCZU
(31.6840°N, 119.9550°E)
Time: 23:48:29
(UTC+08:00)
Language:

Tiangong 2 - Orbit

View from above orbital plane
View from above orbital plane
View from above satellite
View from above satellite

Ground track
Ground track

The orbit data is extracted from the following two-line orbital elements,

1 41765U 16057A   19144.40484880  .00002370  00000-0  31240-4 0  9993
2 41765  42.7832 108.7073 0006363  98.2348  41.5162 15.61577838153323
Epoch (UTC): 24 May 2019 09:42:58
Eccentricity: 0.0006363
inclination: 42.7832°
perigee height: 379 km
apogee height: 387 km
right ascension of ascending node: 108.7073°
argument of perigee: 98.2348°
revolutions per day: 15.61577838
mean anomaly at epoch: 41.5162°
orbit number at epoch: 15332

The dashed part of the orbit path shows where the satellite is in the earth's shadow,  

DLR